SCP
0 0 0 0 0 0 0 0 0 0 0 0 0 0 0 0 0 0 1 0 0 1 1 1 2 2 2 2 1 1 1 1 1 1 0 0 0 0 1 1 1 1 0 0 1 1 1 1 1
0 0 0 0 0 0 0 0 0 0 0 0 0 0 0 0 0 0 1 0 0 0 1 1 2 2 2 2 1 1 1 1 1 1 0 0 0 1 1 1 1 1 0 0 0 1 1 1 1
0 0 0 0 0 0 0 0 0 0 0 0 0 0 0 0 1 1 1 0 0 0 1 1 2 2 2 1 1 1 1 1 1 1 1 1 1 1 1 1 1 1 0 0 0 1 1 1 1
0 0 0 0 0 0 0 0 0 0 0 0 1 1 1 1 1 1 1 0 0 0 1 1 1 2 1 1 1 1 1 1 1 1 1 1 1 1 0 0 0 0 0 0 0 1 1 1 1
0 0 0 0 0 0 0 0 0 0 0 1 1 1 1 1 1 1 1 0 0 0 1 1 1 1 1 1 1 1 1 1 1 1 0 0 1 0 0 0 0 0 0 0 0 1 1 1 1
0 0 0 0 0 0 0 0 0 0 0 1 1 1 1 1 1 1 1 1 0 0 1 1 1 1 1 1 1 1 1 1 1 1 0 0 0 0 0 0 0 1 1 0 0 1 1 1 1
0 0 0 0 0 0 0 1 0 0 0 0 1 1 1 1 1 1 1 1 0 0 1 1 1 1 1 1 1 1 1 1 1 1 1 0 0 0 0 1 1 1 1 0 0 0 0 0 0
0 0 0 0 0 0 0 1 1 1 0 0 1 1 1 2 2 1 1 1 1 1 1 1 1 1 1 1 1 1 1 1 1 1 1 1 0 0 1 1 1 1 1 1 0 0 0 1 1
0 0 0 0 0 0 0 1 1 1 1 1 1 1 2 2 2 2 1 1 1 1 1 1 1 1 1 0 1 1 1 1 1 1 1 1 0 0 1 1 1 1 1 1 1 1 1 1 1
0 0 0 0 0 0 0 1 1 1 1 1 1 1 2 2 2 2 1 1 1 1 1 1 1 1 1 0 0 1 1 1 1 1 1 1 1 1 1 1 1 1 1 1 1 1 1 1 1
0 0 0 0 0 0 1 1 1 1 1 1 1 2 2 2 2 2 1 1 1 1 1 1 1 1 1 1 1 1 1 1 1 1 1 1 1 1 1 1 1 1 1 1 1 1 1 1 1
0 0 0 1 0 0 1 1 1 1 1 1 2 2 2 2 2 2 1 2 2 1 2 1 1 1 1 1 1 1 1 1 1 1 1 1 1 1 1 1 1 1 1 2 2 2 2 2 2
0 0 0 0 0 0 0 1 1 1 1 1 2 2 2 2 2 1 2 2 2 2 2 2 2 2 1 1 1 1 1 1 1 1 2 2 2 2 1 2 2 2 2 2 2 2 2 2 2
0 0 0 0 0 0 0 0 1 1 1 1 2 2 2 1 1 2 2 3 3 2 2 3 2 2 2 2 2 2 1 1 2 2 2 2 2 2 2 2 2 2 2 3 3 3 3 2 2
0 0 0 0 0 0 0 0 1 1 1 1 2 2 2 2 2 2 2 3 3 3 2 2 2 2 3 3 3 2 2 2 2 2 2 2 2 3 3 2 2 2 3 3 3 3 3 2 2
0 0 0 0 0 0 0 0 1 1 1 1 1 2 2 2 2 2 2 2 2 2 2 2 2 2 3 3 4 3 3 4 4 4 3 3 3 4 4 3 2 2 3 3 3 3 3 2 2
0 0 0 0 0 0 0 0 1 1 1 1 1 1 1 1 2 2 2 2 2 2 2 2 2 2 3 4 4 4 4 4 4 4 4 4 3 4 4 4 3 3 3 3 3 3 3 2 2
0 0 0 0 0 0 0 0 1 1 1 1 2 2 2 1 1 2 2 2 2 2 3 2 2 3 3 3 4 4 4 4 3 3 3 3 3 4 4 4 3 4 4 3 3 3 3 3 3
0 0 0 0 0 0 0 0 1 1 2 2 2 2 2 2 2 2 2 2 2 2 3 3 3 3 3 3 3 3 3 3 2 2 3 3 3 3 4 4 4 4 4 3 3 3 3 3 3
0 0 0 0 0 0 0 0 1 1 2 2 2 2 2 2 2 2 2 2 2 2 2 3 3 3 3 3 3 4 3 3 2 2 2 2 3 3 3 3 3 3 3 3 3 2 2 2 2
0 0 0 0 0 0 0 0 1 1 1 2 2 2 3 2 3 3 2 2 2 2 2 2 3 4 4 4 4 4 4 3 3 3 3 2 2 2 2 2 3 2 2 3 2 2 2 2 2
0 0 0 0 0 0 0 0 1 1 1 2 2 3 3 3 3 3 2 2 2 2 2 2 3 4 4 4 4 4 4 4 4 4 4 3 2 2 2 2 3 3 3 3 3 2 2 3 3
0 0 0 0 0 0 0 0 1 1 1 2 3 3 4 4 3 3 2 2 2 3 3 3 3 4 4 5 4 4 3 3 4 4 4 3 2 2 2 2 3 4 4 4 3 3 3 3 3
0 0 0 0 0 0 0 0 1 1 2 2 2 3 4 4 4 3 2 2 2 3 4 4 4 5 5 5 5 4 3 4 4 4 4 3 2 2 2 3 3 4 4 4 4 4 3 3 3
0 0 0 0 0 0 0 0 1 2 2 2 2 3 3 4 4 3 2 2 2 3 4 4 5 5 5 5 5 5 4 4 4 4 4 3 2 2 3 3 4 4 4 4 5 5 4 3 3
0 0 0 0 0 0 0 1 1 2 1 1 2 3 3 3 3 3 3 2 2 3 3 4 5 5 5 5 5 6 6 5 4 4 4 3 3 3 3 4 4 5 5 5 5 5 5 4 4
0 0 0 0 0 0 0 1 1 1 1 2 2 3 3 3 3 3 3 3 3 3 3 4 4 4 5 5 6 6 6 6 5 4 4 3 3 3 4 4 5 6 6 6 6 6 5 5 4
0 0 0 0 0 0 0 1 1 1 1 1 2 2 2 2 3 3 4 4 4 4 4 4 4 5 5 5 6 6 6 6 5 4 3 3 3 4 4 5 6 7 7 7 7 6 6 6 5
0 0 0 0 0 0 0 1 1 1 1 1 2 2 2 2 2 3 4 4 5 5 5 5 5 5 6 6 5 5 5 5 4 3 3 3 4 4 4 5 6 7 8 8 8 6 6 6 6
0 0 0 0 0 0 0 1 1 1 1 1 1 2 2 2 2 3 4 4 4 5 5 5 5 5 6 6 5 4 4 4 3 3 3 3 4 4 5 5 6 7 8 8 8 7 6 5 5
Wind_Speed
11 9 7 6 7 2 7 7 6 5 4 6 5 4 5 7 7 7 7 8 8 9 11 11 8 7 7 7 7 7 7 7 7 7 8 8 8 8 9 10 9 9 10 10 10 10 9 10 10
7 7 7 7 3 4 7 6 6 6 5 4 4 3 4 7 7 8 8 9 9 9 10 10 9 7 7 7 7 7 7 7 7 7 7 7 8 8 9 9 9 9 10 9 10 9 9 9 10
7 7 7 4 3 5 7 6 6 6 3 1 3 4 5 6 6 6 8 10 9 9 9 11 8 8 8 7 7 7 7 7 7 7 7 7 7 8 8 9 9 9 9 9 9 9 9 9 9
6 7 7 2 5 6 6 5 3 3 4 2 3 6 6 6 4 7 11 10 10 9 9 12 7 8 8 7 7 6 6 6 6 6 7 7 7 7 8 9 9 9 8 8 8 7 7 8 8
7 7 5 2 4 4 3 3 1 1 3 4 3 6 8 6 7 10 10 10 9 9 9 12 8 7 7 7 7 6 6 6 6 6 6 6 6 7 8 8 8 8 8 8 7 7 6 6 7
6 6 4 2 4 3 3 1 1 1 4 4 4 6 7 7 8 10 10 9 9 9 9 11 10 8 7 6 6 6 6 6 5 5 6 6 6 7 7 7 7 8 7 7 6 6 5 6 6
7 4 2 1 3 3 3 1 0 1 3 3 3 5 8 8 8 9 9 8 8 8 8 8 10 10 9 7 6 6 6 6 6 6 6 6 6 5 7 7 6 7 6 6 5 6 5 5 5
6 5 4 2 2 3 3 1 1 1 2 4 3 3 8 11 10 9 9 8 8 8 7 7 8 8 8 9 8 5 5 5 6 6 6 6 6 6 7 6 6 6 5 5 5 5 5 5 5
7 7 4 2 1 2 3 2 1 1 4 4 2 2 8 15 13 11 10 8 8 8 7 6 6 6 6 6 8 7 7 5 6 7 7 6 4 5 6 6 6 5 5 5 5 5 4 5 6
7 7 3 1 2 1 1 1 1 4 6 5 6 7 12 15 14 13 11 11 10 9 8 7 6 6 6 4 6 5 5 5 3 3 4 3 3 2 3 7 6 5 5 6 5 5 6 5 4
7 7 2 1 1 2 2 2 3 4 4 4 7 11 14 15 13 12 11 11 10 10 8 8 6 5 5 4 3 2 2 3 3 3 3 2 2 2 2 3 5 5 5 4 6 6 3 2 1
7 5 4 3 2 3 3 3 3 4 1 1 6 12 15 15 14 12 12 11 10 10 9 8 7 6 5 3 3 3 2 3 2 3 2 2 1 1 1 1 1 2 1 1 1 1 1 1 1
9 6 5 5 5 5 5 5 4 4 2 3 7 12 14 14 13 11 10 10 10 10 10 9 7 6 5 3 3 2 2 2 3 2 2 1 1 1 1 1 0 0 1 2 1 1 1 1 2
5 5 5 6 6 6 7 6 6 4 4 6 9 11 13 12 12 11 10 10 10 9 9 8 8 7 6 5 3 2 2 2 2 2 2 1 1 1 1 1 1 1 1 0 0 1 1 1 1
5 7 9 8 7 6 7 9 8 5 6 8 9 10 11 11 12 11 11 10 10 9 9 8 8 7 6 5 5 3 3 3 2 2 2 1 1 1 1 1 1 0 1 1 1 1 1 2 2
9 11 11 7 6 6 9 9 5 6 8 8 8 10 10 11 12 11 10 9 9 9 9 8 7 8 7 5 4 3 2 2 2 2 2 2 1 1 1 1 0 1 1 1 1 1 1 1 1
11 11 9 7 7 6 10 8 5 6 7 7 8 8 9 10 11 10 10 10 9 9 9 9 8 8 7 6 4 3 3 2 2 2 2 2 2 1 1 1 0 1 1 1 1 1 1 1 1
9 10 9 8 5 8 11 9 6 7 8 8 8 8 9 10 10 10 10 10 9 9 9 9 9 8 7 6 4 3 3 3 2 1 1 1 2 1 1 2 1 2 1 1 0 1 1 1 1
8 9 9 6 3 8 10 9 7 7 8 9 8 8 9 9 9 9 10 10 10 10 10 10 9 8 7 5 5 5 4 3 3 2 2 2 1 1 2 1 2 2 1 1 1 1 2 1 1
10 11 10 6 4 7 9 10 7 7 9 8 8 8 8 8 9 10 10 10 10 11 11 10 10 9 8 6 4 3 3 3 3 2 3 3 3 2 2 1 2 1 1 2 2 2 2 1 1
11 11 9 7 5 8 9 11 9 7 7 7 7 7 7 8 9 10 10 11 11 11 12 10 10 10 9 8 6 5 4 3 4 4 4 3 3 2 1 2 2 1 2 1 2 2 3 2 1
10 8 9 8 9 8 8 9 7 8 8 8 7 7 6 7 8 9 10 11 11 11 11 11 11 10 9 9 7 7 6 5 4 3 3 3 3 2 2 2 1 2 1 1 3 1 3 3 2
9 5 8 9 10 11 10 11 7 8 8 7 7 6 5 5 7 8 9 10 10 10 10 10 10 10 9 9 8 7 6 4 4 3 3 3 3 3 2 2 2 2 2 1 2 2 4 3 3
6 7 8 10 11 13 11 11 8 5 5 5 5 6 5 4 5 6 6 8 9 9 9 10 10 10 10 9 9 8 6 5 4 4 4 4 3 3 3 3 2 2 1 2 2 3 4 3 3
9 10 8 10 10 10 6 9 5 1 2 3 3 3 4 4 4 5 6 8 9 10 10 9 10 9 9 9 8 8 7 7 6 5 4 3 3 2 2 2 2 2 2 2 2 3 3 3 3
11 13 10 9 9 7 7 9 3 3 2 2 2 2 3 4 4 5 5 6 8 9 9 9 10 9 9 9 7 7 7 5 5 5 3 3 2 2 2 2 2 2 2 2 2 3 3 2 3
11 12 10 11 11 10 8 6 5 5 5 4 3 3 3 4 4 4 4 5 6 7 8 9 9 9 9 9 8 7 6 5 4 5 4 3 2 2 3 3 2 2 2 2 2 2 2 2 3
10 9 8 11 10 11 10 10 6 7 6 5 4 3 3 3 3 4 4 5 5 6 6 7 8 8 8 8 8 6 6 6 5 5 4 3 3 2 3 3 2 2 2 2 3 3 2 2 2
9 11 10 10 10 10 10 5 2 5 5 4 3 2 2 3 3 3 3 4 5 6 6 6 7 7 7 7 6 6 6 6 5 4 5 4 4 4 3 3 3 2 2 2 2 2 2 2 2
10 11 11 10 10 11 10 3 4 4 4 3 2 2 2 2 3 4 4 4 5 6 6 6 6 6 7 7 6 6 5 5 5 5 4 4 5 4 4 4 3 3 3 3 3 3 2 2 2
Wind_Direction
180 188 214 234 234 121 69 64 50 54 58 52 40 25 31 28 18 61 98 124 128 130 128 136 131 131 125 121 116 110 108 112 117 121 122 127 131 132 130 129 126 123 119 117 119 116 115 115 115
184 195 228 240 266 78 74 58 55 54 70 89 87 72 68 67 56 93 123 128 139 133 135 130 127 135 128 121 118 115 111 113 115 114 116 124 127 129 129 131 127 123 119 119 120 119 121 120 116
197 229 259 251 45 46 68 61 62 83 93 107 93 66 48 68 91 109 121 140 144 140 135 122 137 139 133 125 122 120 116 117 118 117 116 117 122 124 127 131 126 121 120 121 119 121 125 122 121
223 227 237 247 80 63 52 64 76 116 114 104 114 100 84 68 86 111 131 147 145 140 135 127 142 140 137 132 128 125 121 117 115 117 118 116 117 117 121 125 127 125 124 123 120 121 124 123 122
241 255 232 157 94 87 63 49 79 78 98 113 127 106 100 91 100 121 139 147 146 140 137 130 135 138 137 132 127 124 123 121 118 115 115 112 114 118 123 124 128 129 127 125 123 122 122 124 123
241 246 240 146 108 104 87 87 164 95 102 122 132 120 102 116 128 136 142 151 146 143 139 132 141 143 140 134 126 122 118 121 122 122 118 113 114 122 129 130 129 124 124 124 124 127 126 123 126
272 266 265 186 126 127 82 88 215 77 112 121 134 123 122 138 137 141 144 148 145 146 143 145 151 152 151 137 127 123 119 118 119 122 122 121 123 127 134 131 133 131 133 136 139 134 129 131 137
282 264 227 212 199 102 97 126 61 325 99 114 164 147 142 148 149 148 147 149 148 150 151 154 153 150 159 149 137 131 126 122 125 125 128 137 146 148 142 143 136 136 137 141 138 135 133 138 145
257 250 232 220 241 91 124 179 121 168 139 144 146 72 119 143 153 155 153 156 155 158 161 166 156 154 159 141 140 154 154 149 161 152 157 183 167 153 154 124 127 137 141 143 142 139 146 155 153
241 251 252 358 336 353 171 226 171 189 173 161 141 121 132 150 161 165 165 166 166 168 171 170 167 161 159 148 148 163 160 150 167 132 153 158 141 146 140 131 147 160 165 165 163 171 186 201 169
238 260 268 244 288 291 238 228 212 227 206 181 163 153 155 165 172 175 173 170 169 168 170 169 169 167 167 161 159 158 147 143 151 136 145 142 162 158 162 149 161 171 180 178 166 187 192 162 144
240 249 263 255 240 249 250 244 231 244 288 96 159 158 164 175 180 183 179 173 170 171 171 172 172 174 179 166 161 173 163 149 145 141 173 153 163 170 141 145 154 166 151 157 178 161 130 124 139
231 233 237 240 236 245 250 245 252 241 213 160 160 162 173 181 183 186 182 174 173 175 174 173 177 172 176 179 203 171 170 159 141 151 140 167 168 163 136 126 133 185 160 172 175 132 128 149 177
235 233 235 238 236 231 236 236 231 216 181 169 171 174 180 185 186 184 183 181 179 179 178 171 178 176 181 184 193 186 180 166 167 144 125 161 153 119 164 157 177 177 169 78 193 137 172 180 152
233 233 232 227 226 223 235 231 222 194 183 184 181 182 186 188 188 189 189 186 183 181 179 176 180 180 185 189 192 188 191 181 163 134 131 148 147 131 185 153 192 131 177 179 204 168 192 193 194
223 229 228 200 213 210 236 238 190 173 190 194 192 187 189 192 195 192 190 190 185 181 179 183 184 178 182 188 191 191 182 171 161 149 135 133 132 153 189 174 186 211 231 218 184 201 204 198 225
217 230 231 196 201 214 236 250 187 182 202 206 205 195 195 195 200 193 191 190 187 184 181 184 187 181 180 177 179 186 169 172 179 163 141 130 141 155 184 173 141 233 214 214 233 138 223 228 240
223 235 232 225 189 229 237 244 213 209 218 217 210 201 199 202 201 191 189 187 184 183 183 185 185 182 179 176 176 182 174 174 177 159 125 145 155 145 223 176 186 240 213 204 198 199 230 246 246
258 251 248 239 205 242 244 245 229 213 223 223 212 207 204 205 196 186 185 185 181 181 182 186 188 179 183 183 186 184 179 179 172 167 142 152 145 169 241 228 184 230 210 238 217 222 208 226 234
244 245 244 232 211 250 252 248 233 216 224 226 219 210 207 198 188 183 184 186 186 183 184 185 187 184 189 184 190 192 181 183 173 167 151 171 177 207 209 227 230 206 200 204 223 242 255 232 234
238 246 250 249 226 230 252 242 222 208 212 212 214 214 207 198 190 188 189 190 188 186 187 188 186 185 192 184 184 177 173 185 181 181 178 179 189 195 226 210 242 234 234 193 227 234 248 254 235
239 239 252 247 242 233 230 256 213 202 199 202 205 208 209 201 195 192 191 191 192 190 188 189 185 186 185 185 192 191 194 191 184 188 165 175 187 193 192 206 206 241 244 203 235 210 251 253 247
252 250 245 245 248 254 227 251 228 193 209 212 207 209 211 205 197 193 195 191 190 189 187 184 183 183 183 188 190 200 202 193 182 182 167 196 173 187 192 201 205 214 222 223 247 231 255 251 260
233 222 224 236 242 243 237 245 242 201 220 213 193 198 194 194 187 187 188 187 187 184 182 179 177 180 181 186 191 200 200 198 192 192 184 196 180 181 181 200 207 218 220 215 228 231 230 252 265
219 229 225 223 224 237 210 241 248 194 204 208 188 186 184 185 179 177 179 180 180 181 180 179 177 177 180 185 190 193 197 196 198 202 191 205 191 182 175 202 206 212 211 226 233 230 245 237 239
223 238 247 251 247 234 202 236 210 150 163 176 179 168 167 177 183 180 178 177 175 175 178 179 178 177 178 180 185 188 189 197 193 196 199 197 199 175 162 201 205 209 215 224 230 243 234 234 241
227 234 256 264 261 258 236 220 195 181 185 183 172 163 169 182 180 175 172 170 170 173 177 178 174 175 177 178 180 182 184 191 182 180 198 196 192 182 181 197 205 211 216 230 238 245 248 239 240
248 240 239 247 251 253 242 232 220 184 189 185 184 175 168 174 170 166 165 164 169 170 169 173 171 175 175 175 181 174 177 180 180 193 188 188 194 189 192 193 199 210 215 220 237 230 220 236 238
216 224 238 249 253 259 257 240 132 181 190 201 204 188 171 181 169 164 160 159 161 162 160 161 164 167 169 170 170 170 172 173 178 186 186 186 193 189 193 196 199 206 212 213 228 249 229 237 238
238 236 234 241 244 253 265 255 111 155 173 198 204 178 171 177 165 157 151 146 154 161 160 159 164 168 169 164 165 169 173 176 181 182 185 187 190 194 189 199 204 214 213 213 225 237 238 238 238